RH
15 18 18 17 15 13 12 13 14 17 20 23 24 23 23 25 26 25 29 35 37 38 40 40 43 41 40 44 45 47 48 46 48 53 56 57 56 55 54 52 51 50 46 43 41 40 38 36 35 33 31 31 32 32 35 38 37 36 37 36 36 37 34 32 33 32 32 33 33 34 34 36 35 32 33 36 35 36 37 37 35 34 31 29 29 27
17 18 17 16 15 13 12 11 12 15 17 20 23 23 22 24 25 23 26 33 36 37 39 39 40 40 39 41 44 46 46 43 43 48 53 54 54 53 53 53 52 49 47 45 42 42 40 37 35 34 31 30 30 30 32 34 35 35 35 35 33 35 34 32 32 29 28 29 28 30 31 33 33 30 31 34 35 35 36 36 36 35 32 31 29 27
18 16 14 15 15 13 13 11 11 12 15 17 21 23 22 22 23 25 26 31 34 34 36 37 38 39 37 39 44 45 43 41 41 42 44 46 48 49 51 53 52 48 46 46 45 43 41 38 36 35 32 29 29 29 31 32 33 32 33 33 33 33 33 32 31 28 25 25 25 27 28 30 30 28 29 31 32 34 34 34 35 34 32 31 29 27
18 14 12 14 15 14 14 12 11 11 13 15 18 21 22 20 21 27 28 28 31 33 34 35 36 38 37 37 41 45 44 41 39 39 38 40 42 44 48 51 51 47 45 46 46 44 42 38 35 34 32 30 28 28 29 30 31 30 30 32 32 31 31 30 29 27 23 23 25 27 28 28 29 29 28 29 30 32 32 32 34 33 31 30 28 27
18 14 13 14 14 14 14 13 12 13 13 13 15 18 19 19 18 23 28 27 28 32 32 34 37 38 39 38 39 41 43 41 40 40 39 37 38 41 45 48 48 46 44 45 46 44 42 38 33 31 31 29 27 26 26 27 29 29 28 29 30 30 30 28 26 25 24 23 26 28 29 29 31 32 30 28 27 28 30 31 33 33 31 28 26 25
18 16 15 15 14 15 14 13 12 13 15 13 12 14 15 18 17 20 27 28 27 30 31 32 38 40 38 37 38 38 39 42 42 42 42 39 37 39 43 47 49 47 44 43 45 45 43 40 35 31 30 29 26 25 25 26 27 28 27 28 28 28 28 27 24 23 23 23 23 25 26 27 29 30 28 25 24 24 26 28 30 32 31 28 25 24
18 17 16 15 14 14 14 13 12 12 18 17 12 11 12 16 17 19 26 28 27 30 29 30 35 39 37 35 35 35 36 41 43 44 45 42 37 37 39 43 46 47 45 43 43 45 44 42 38 35 32 30 28 26 25 25 26 27 27 27 27 27 26 26 23 22 22 22 21 22 22 22 23 26 26 24 23 22 24 26 27 27 27 25 24 23
19 18 17 15 13 14 14 14 12 11 15 16 12 10 10 13 16 18 22 27 26 26 27 27 28 33 35 34 33 32 33 38 44 45 45 43 38 34 35 38 42 45 43 42 42 43 43 41 40 37 34 31 30 28 26 26 26 26 26 27 28 28 27 25 23 22 21 21 20 20 20 20 21 22 24 25 24 23 23 24 25 25 22 22 24 24
20 19 16 14 14 14 13 12 12 12 13 14 13 13 11 11 14 16 19 24 26 25 26 26 27 30 33 32 31 31 31 35 41 43 42 42 38 33 33 36 42 44 43 42 41 41 41 41 41 38 36 34 32 30 28 26 25 25 25 27 27 28 27 26 24 22 20 19 19 19 19 20 20 21 23 25 25 25 25 23 23 23 20 20 25 27
21 19 17 15 14 13 13 12 12 12 12 12 13 15 15 13 13 14 16 21 24 26 26 25 26 30 33 31 30 30 31 31 36 39 38 37 36 32 32 36 42 43 43 44 43 41 40 40 41 39 39 39 35 32 30 29 27 26 26 26 27 28 27 27 24 22 19 18 18 17 17 18 18 19 22 24 25 24 24 23 22 22 20 20 23 26
20 20 18 16 13 14 15 15 13 12 12 13 14 15 16 14 13 13 14 17 23 25 25 24 23 26 30 31 28 28 28 28 29 33 34 34 33 32 32 34 37 39 42 44 43 42 40 40 40 39 39 39 37 33 32 31 29 27 26 26 27 27 27 27 24 21 19 17 16 15 14 15 15 16 19 22 23 22 23 24 23 22 20 20 21 22
21 21 21 17 15 15 17 18 16 14 13 14 15 15 15 14 14 14 13 14 20 20 18 19 21 22 26 28 27 26 26 25 24 28 32 34 34 33 32 33 35 37 41 43 42 42 41 40 39 38 37 37 35 33 32 32 31 28 27 26 26 27 27 26 24 21 18 17 15 14 13 14 14 14 15 17 18 18 19 22 24 23 21 20 21 21
21 20 20 19 17 15 17 18 17 16 15 15 16 15 16 17 16 16 16 14 15 15 13 14 18 20 21 23 24 27 28 26 25 28 31 33 35 34 31 33 35 38 42 43 42 42 40 39 39 37 35 34 33 32 33 33 30 28 27 25 25 26 26 25 23 20 18 16 15 14 13 13 14 14 14 13 14 15 16 18 22 23 21 19 19 18
20 21 20 20 19 16 16 17 17 17 16 15 16 15 15 17 17 17 16 13 13 13 11 11 14 15 17 17 18 23 26 26 26 29 31 32 36 37 32 31 33 36 40 42 43 42 39 39 40 39 35 34 32 31 32 32 30 28 26 25 25 25 24 24 22 20 17 16 14 14 13 13 14 14 14 13 12 13 14 16 18 19 18 16 15 15
21 23 19 18 19 19 17 16 16 16 16 14 14 13 14 14 15 16 14 13 14 14 10 10 11 11 13 13 13 16 20 23 24 26 28 30 35 39 34 29 31 32 35 39 40 38 37 37 40 40 38 34 31 30 31 31 29 28 27 25 25 25 24 24 22 19 17 15 14 13 13 13 14 14 13 12 12 12 12 13 15 16 16 15 14 15
21 21 19 19 20 20 18 16 16 16 16 14 13 13 13 12 13 13 13 12 13 14 13 11 9 9 9 10 11 11 13 17 18 19 23 25 28 33 31 29 29 32 33 35 34 35 36 36 38 40 39 36 32 32 31 29 28 27 27 26 25 25 24 23 22 18 15 13 13 13 13 13 14 14 13 12 12 11 11 11 13 14 15 15 15 16
21 20 20 22 22 19 19 18 17 17 16 15 14 13 12 12 12 12 14 13 12 15 16 12 10 9 8 8 9 9 9 11 11 12 18 22 22 26 28 26 27 30 32 31 31 32 34 36 37 39 40 36 32 31 30 28 26 26 27 26 25 25 25 23 22 20 16 14 13 12 13 12 12 12 12 11 10 11 11 11 11 12 14 15 17 17
23 21 21 24 22 21 20 20 19 18 16 14 14 12 12 13 12 12 15 16 16 16 14 11 11 10 10 9 8 8 8 8 8 8 13 19 23 28 30 25 24 28 29 30 31 30 32 36 37 37 39 36 30 28 30 30 29 28 28 28 27 25 25 23 22 21 19 17 15 13 12 12 12 12 11 11 10 10 11 11 11 12 13 14 15 17
25 26 25 23 22 21 21 22 22 19 17 15 14 13 13 14 13 12 14 17 18 18 14 12 11 10 11 10 8 9 9 8 9 8 10 16 23 31 32 26 25 28 28 28 29 29 31 35 36 37 37 36 31 28 31 33 32 31 30 29 28 26 24 23 22 21 20 18 17 15 13 12 11 11 11 11 10 10 10 11 11 11 12 13 14 16
28 30 29 24 22 23 24 23 22 20 18 16 16 16 15 15 14 12 12 14 17 19 18 16 14 13 12 11 8 10 11 10 10 10 9 13 19 25 28 25 25 27 25 25 27 28 31 34 35 37 37 37 34 30 31 33 33 33 32 31 29 28 25 24 23 22 21 19 18 16 14 13 12 11 11 11 11 11 10 9 10 11 11 13 14 16
28 30 30 29 27 27 25 23 19 19 18 17 17 17 17 15 15 14 12 11 13 19 22 21 21 18 15 14 12 11 11 11 11 11 10 10 14 19 21 22 23 23 22 24 27 30 32 32 34 37 38 38 35 31 30 31 31 32 32 31 31 30 28 26 24 23 22 19 16 15 13 13 13 12 12 12 11 11 9 9 10 10 12 13 14 16
34 35 33 32 33 29 25 21 18 19 18 18 17 16 15 14 14 14 15 12 10 14 18 21 25 25 20 18 17 14 14 12 10 11 11 11 13 17 19 21 21 21 21 23 27 30 32 32 35 38 37 36 35 32 29 29 30 31 30 30 30 31 30 28 26 23 21 20 17 15 13 11 11 12 12 12 12 11 10 10 10 11 13 14 15 16
40 39 36 33 34 31 26 23 22 21 20 20 18 16 15 14 12 14 16 15 11 11 12 15 21 26 23 20 18 16 16 14 11 11 11 11 13 16 18 19 20 22 21 22 25 29 32 34 36 38 36 34 33 32 30 29 30 30 30 29 30 31 31 31 28 24 21 20 18 16 13 12 12 12 12 12 12 11 10 10 10 11 13 14 15 17
38 37 38 36 33 31 29 27 24 23 23 22 20 18 17 15 13 13 15 15 13 12 12 13 18 22 23 21 18 18 18 15 12 12 12 11 12 15 16 17 20 22 21 21 23 26 30 33 35 36 35 34 35 34 32 31 30 30 31 30 30 30 32 32 31 28 24 21 18 17 15 15 14 13 13 13 13 12 11 11 12 12 13 14 16 18
43 42 47 46 40 35 32 29 27 27 26 24 21 20 18 17 16 15 16 16 16 14 12 14 17 19 23 24 20 19 20 18 15 14 12 10 12 15 16 16 18 20 19 19 20 22 26 30 33 34 34 35 36 36 35 33 31 30 30 30 31 32 33 34 33 32 29 24 20 18 17 16 15 14 14 14 14 13 12 13 14 14 15 16 18 19
45 44 50 53 49 42 38 35 31 29 28 26 23 22 20 19 18 19 18 17 19 18 14 13 15 16 19 23 21 20 21 19 17 16 14 11 11 15 18 17 17 17 18 19 18 19 23 28 30 32 33 35 37 38 38 36 33 32 31 31 32 34 35 37 37 36 35 31 26 22 19 17 15 16 15 15 16 15 15 16 16 16 17 19 19 20
43 43 47 51 52 47 43 41 35 30 29 28 26 24 22 19 19 21 20 19 21 21 18 17 17 16 16 18 20 21 21 20 19 19 19 16 13 15 19 19 18 17 18 18 19 19 22 27 30 34 36 36 38 39 39 37 35 34 33 32 33 34 36 37 38 39 39 37 34 29 23 19 16 15 16 17 17 17 17 18 18 18 19 20 21 22
48 46 47 48 48 45 43 40 38 34 29 27 25 24 23 20 19 21 21 20 21 22 22 20 19 18 18 17 19 21 20 19 19 18 20 20 16 14 16 19 20 18 18 18 19 19 22 27 32 36 37 38 38 39 39 38 37 36 34 34 34 34 36 38 39 40 40 40 39 36 30 24 19 17 17 17 17 19 19 19 19 20 21 22 23 24
52 48 49 49 45 44 42 41 41 38 31 28 27 24 24 22 18 19 21 21 21 22 25 26 21 19 21 19 19 19 17 16 17 15 17 20 18 14 15 18 20 20 20 20 20 21 23 28 33 37 39 39 38 38 39 39 38 37 36 36 36 36 37 38 39 40 41 41 41 40 37 32 27 23 21 20 20 20 20 21 21 22 22 23 24 24
57 50 50 50 46 44 44 44 43 40 35 32 30 26 25 23 19 18 20 22 23 22 24 27 25 22 21 20 19 19 17 16 15 14 15 18 18 16 16 17 19 22 23 21 21 23 24 26 30 35 39 40 38 37 38 39 39 39 38 38 38 38 39 39 40 42 43 44 44 44 43 40 36 32 29 27 25 23 22 23 23 24 24 24 25 24
63 54 48 49 48 43 45 46 43 40 37 36 33 29 27 26 22 20 20 21 23 23 22 28 31 28 25 23 22 23 22 20 17 16 16 18 19 18 18 19 21 23 25 25 26 26 25 27 29 33 38 40 38 36 37 38 38 39 39 39 40 40 39 39 41 42 44 45 46 46 46 45 43 40 36 33 31 29 27 25 25 26 26 27 27 27
65 55 48 49 51 45 45 49 46 40 38 38 37 32 29 27 24 21 20 20 23 24 25 29 34 33 29 27 26 27 27 25 22 20 18 18 18 18 20 23 26 27 28 29 30 29 27 27 29 32 36 39 39 38 37 36 37 38 39 39 40 41 40 39 39 41 43 44 45 46 46 46 46 44 42 38 36 33 31 29 28 29 30 30 30 29
66 59 50 50 54 50 48 51 48 43 43 44 40 34 30 28 26 21 19 20 22 24 26 31 34 34 31 30 28 26 27 26 24 21 20 19 17 17 20 24 29 34 36 36 36 36 34 31 29 31 34 37 38 39 37 35 35 37 37 38 39 39 40 39 39 39 40 41 43 44 44 44 44 44 44 43 40 37 35 34 32 31 32 32 32 31
67 63 54 51 55 54 52 52 50 48 49 47 40 33 30 29 26 23 20 19 21 24 27 30 32 33 33 31 30 28 27 25 22 20 19 18 16 17 20 20 24 31 34 32 31 30 28 28 29 32 34 36 38 38 35 33 33 35 36 37 37 38 38 38 38 38 39 40 41 42 41 41 41 40 42 43 44 42 39 37 35 33 33 33 34 34
67 64 58 52 54 57 57 57 59 57 51 43 37 33 30 30 29 25 22 23 23 23 25 29 31 33 34 32 31 31 28 26 23 19 19 19 18 20 21 21 21 23 25 25 22 21 20 19 21 23 25 27 29 30 30 30 32 33 34 35 36 36 36 37 36 37 38 39 40 40 40 39 38 38 39 40 43 46 44 40 38 37 35 36 36 35
66 64 60 55 56 60 63 66 65 58 48 40 36 35 33 32 31 27 28 33 33 28 27 27 30 34 36 34 32 31 30 28 26 24 24 25 25 24 25 27 28 27 28 28 28 27 25 21 17 18 19 19 19 21 23 25 27 29 31 33 34 34 35 35 35 34 36 38 38 39 39 38 36 36 36 37 39 43 46 45 42 41 40 39 38 37
64 63 63 60 59 61 65 67 61 55 49 42 39 39 36 34 32 31 35 41 40 35 32 30 29 33 35 36 35 33 31 31 34 34 33 31 29 28 29 31 33 32 32 33 32 32 30 27 25 24 24 23 22 21 21 22 22 24 27 29 31 33 33 34 35 34 33 35 37 38 38 37 37 35 35 35 34 37 42 45 46 45 43 42 39 37
62 63 63 63 62 61 62 64 60 57 54 49 47 45 39 34 31 32 39 45 42 39 38 35 33 34 36 38 38 34 34 38 41 39 35 32 30 30 31 32 32 31 31 30 30 31 29 29 29 28 28 27 25 22 22 23 22 22 24 26 28 30 33 34 34 34 33 33 35 36 36 36 37 36 35 34 33 32 35 40 43 45 45 43 41 38
61 60 61 62 62 61 62 65 64 60 57 54 54 49 42 38 34 32 45 57 52 47 47 44 40 39 40 42 40 36 39 46 46 41 35 34 34 31 31 31 31 31 29 27 28 30 30 28 26 24 24 24 22 21 21 24 24 25 25 26 27 28 29 31 33 34 34 32 32 34 35 35 36 37 36 36 35 33 33 35 38 42 45 45 45 42
61 60 60 61 62 62 63 64 62 61 59 56 54 52 47 42 35 41 62 72 62 56 54 48 44 44 43 44 43 43 47 51 50 46 41 39 38 34 31 30 29 29 30 29 29 30 31 31 27 23 22 24 24 22 21 21 23 25 26 28 28 28 27 28 29 30 31 31 30 31 33 34 36 36 37 38 37 36 36 37 37 40 45 47 47 45
61 60 60 60 60 61 63 62 60 62 62 56 54 54 49 41 43 61 79 78 66 62 58 50 49 51 48 45 44 45 49 50 49 49 46 44 43 39 34 32 29 28 31 32 32 29 28 28 26 23 24 26 26 25 23 21 20 20 23 25 26 27 27 26 25 25 25 26 29 30 31 32 34 36 37 38 38 38 39 40 39 41 44 47 48 47
61 62 61 60 59 60 62 63 62 64 63 57 55 54 50 53 66 79 82 75 68 66 61 56 57 57 53 50 46 45 46 47 48 51 48 45 44 40 37 35 33 30 30 31 31 30 28 28 26 25 25 26 27 28 26 24 20 16 17 19 21 23 25 24 23 21 21 22 25 28 31 32 33 36 37 38 39 39 39 41 42 43 44 46 47 47
58 60 60 59 59 59 60 63 69 73 68 61 59 59 59 67 80 82 76 73 69 65 62 61 61 60 59 56 50 46 47 48 48 50 47 44 42 39 37 37 37 35 34 34 34 32 32 31 29 27 24 23 26 28 26 24 23 19 16 16 17 19 21 21 20 20 19 19 20 24 28 30 32 35 37 38 38 38 39 41 44 45 46 47 47 48
62 63 65 63 61 60 63 70 79 81 74 67 68 70 69 73 78 76 73 71 67 64 64 63 61 61 62 59 52 48 48 47 46 46 45 44 41 38 37 38 39 37 35 37 38 37 36 35 33 32 29 23 22 27 27 24 24 24 21 19 18 18 20 20 20 19 19 19 19 21 24 27 30 34 36 37 38 40 39 40 43 45 46 48 48 49
73 72 72 72 70 68 70 76 79 77 73 71 72 73 72 73 74 73 72 70 67 66 66 63 60 59 59 57 55 51 48 49 48 46 45 44 42 40 38 39 39 37 33 34 37 38 38 38 37 35 33 26 24 28 29 26 25 25 25 24 22 21 21 21 20 20 20 21 21 21 23 25 28 31 34 35 37 40 39 40 43 45 47 48 49 50
74 71 67 69 71 70 67 68 72 73 72 71 72 72 71 72 71 70 71 72 71 70 67 64 61 58 56 55 55 52 50 51 52 50 47 45 44 42 41 39 38 37 34 34 36 37 37 38 38 36 33 30 28 30 30 28 28 27 27 26 25 23 23 23 22 22 22 22 23 23 23 25 27 29 32 33 35 38 39 40 42 45 46 47 48 49
70 68 65 65 68 69 69 69 69 69 68 69 71 70 69 70 71 68 68 71 72 72 70 67 62 59 57 56 54 53 52 51 52 51 47 43 43 43 41 39 38 36 35 34 34 35 34 35 37 35 33 31 30 31 31 30 30 29 29 29 28 26 26 24 23 23 23 24 24 24 24 24 26 29 32 33 35 37 38 39 42 44 45 46 47 48
67 66 67 66 65 68 71 71 66 62 60 63 65 66 66 69 71 69 68 69 69 69 69 66 62 59 58 57 55 54 52 51 52 51 47 44 44 44 42 39 37 37 37 36 36 35 35 35 36 35 34 33 31 31 32 31 31 30 30 30 30 29 28 27 25 24 24 25 25 25 25 26 27 29 31 33 34 36 38 40 42 43 45 46 47 48
65 64 66 66 64 63 65 67 65 62 59 60 64 66 66 66 68 69 70 69 70 71 68 64 61 58 56 56 56 54 51 50 51 49 47 46 45 43 42 40 38 38 39 39 38 36 36 37 38 37 37 35 32 31 32 32 32 32 31 31 31 30 30 29 28 27 26 26 26 27 28 28 29 30 31 33 35 35 37 39 42 44 45 46 47 48
62 63 63 63 64 65 64 65 68 67 65 66 69 69 67 65 65 68 68 67 69 71 70 65 61 58 55 55 56 54 51 50 49 48 48 48 46 43 42 41 39 39 39 39 39 38 37 37 39 39 37 35 33 33 33 33 33 34 34 34 33 32 31 32 31 30 30 29 28 29 29 29 29 30 32 33 34 35 36 38 40 42 44 45 46 46
61 63 63 62 64 63 62 64 66 67 67 68 69 67 65 64 64 65 65 63 62 63 66 66 63 60 56 55 55 56 54 52 50 49 50 51 48 43 41 42 42 41 41 40 39 38 38 38 39 39 38 36 35 35 34 34 34 35 35 36 36 35 34 34 33 32 32 31 30 30 30 29 29 30 32 33 34 35 36 38 40 41 43 44 44 44